| time (UTC) | temp C | wind direction | speed KPH | gust KPH | rain 1hr cm | rain 24hr cm | rain mn cm | humidity % | barometer mb |
| 20260502191843 | 12 | 77 | 3.2 | 9.7 | 0.00 | 0.00 | 0.41 | 75 | 1010.0 |
| 20260502191343 | 11 | 246 | 3.2 | 6.4 | 0.00 | 0.00 | 0.41 | 74 | 1011.0 |
| 20260502190843 | 11 | 117 | 3.2 | 6.4 | 0.00 | 0.00 | 0.41 | 76 | 1011.0 |
| 20260502190343 | 11 | 97 | 6.4 | 9.7 | 0.00 | 0.00 | 0.41 | 77 | 1011.0 |
| 20260502185843 | 11 | 81 | 4.8 | 11.3 | 0.00 | 0.00 | 0.41 | 77 | 1011.0 |
| 20260502185344 | 11 | 54 | 6.4 | 9.7 | 0.00 | 0.00 | 0.41 | 75 | 1011.0 |
| 20260502184844 | 11 | 59 | 4.8 | 11.3 | 0.00 | 0.00 | 0.41 | 76 | 1011.0 |
| 20260502184344 | 11 | 101 | 1.6 | 6.4 | 0.00 | 0.00 | 0.41 | 77 | 1011.0 |
| 20260502183843 | 11 | 25 | 3.2 | 8.0 | 0.00 | 0.00 | 0.41 | 77 | 1011.0 |
| 20260502183343 | 11 | 109 | 4.8 | 6.4 | 0.00 | 0.00 | 0.41 | 77 | 1011.0 |
| 20260502182844 | 11 | 178 | 4.8 | 8.0 | 0.00 | 0.00 | 0.41 | 76 | 1011.0 |
| 20260502182343 | 11 | 131 | 4.8 | 8.0 | 0.00 | 0.00 | 0.41 | 76 | 1011.0 |
| 20260502181843 | 11 | 227 | 3.2 | 4.8 | 0.00 | 0.00 | 0.41 | 80 | 1011.0 |
| 20260502181343 | 11 | 191 | 4.8 | 8.0 | 0.00 | 0.00 | 0.41 | 79 | 1011.0 |
| 20260502180843 | 10 | 98 | 3.2 | 6.4 | 0.00 | 0.00 | 0.41 | 81 | 1011.0 |
| 20260502180343 | 10 | 78 | 4.8 | 8.0 | 0.00 | 0.00 | 0.41 | 84 | 1011.0 |
| 20260502170343 | 11 | 86 | 3.2 | 3.2 | 0.10 | 0.00 | 0.38 | 84 | 1011.0 |
| 20260502164343 | 11 | 288 | 3.2 | 3.2 | 0.00 | 0.00 | 0.33 | 85 | 1011.0 |
| 20260502163845 | 11 | 261 | 0.0 | 0.0 | 0.05 | 0.00 | 0.33 | 86 | 1011.0 |
| 20260502163343 | 10 | 256 | 0.0 | 1.6 | 0.08 | 0.00 | 0.33 | 84 | 1011.0 |
| 20260502162843 | 10 | 0 | 0.0 | 0.0 | 0.00 | 0.00 | 0.33 | 84 | 1011.0 |
| 20260502162343 | 10 | 0 | 0.0 | 0.0 | 0.03 | 0.00 | 0.33 | 84 | 1012.0 |
| 20260502161843 | 10 | 252 | 3.2 | 3.2 | 0.05 | 0.00 | 0.30 | 84 | 1012.0 |
| 20260502161343 | 10 | 0 | 0.0 | 0.0 | 0.10 | 0.00 | 0.30 | 84 | 1012.0 |
| 20260502160843 | 10 | 294 | 1.6 | 3.2 | 0.00 | 0.00 | 0.30 | 84 | 1012.0 |
| 20260502160343 | 11 | 296 | 3.2 | 4.8 | 0.10 | 0.00 | 0.28 | 82 | 1012.0 |
| 20260502152343 | 11 | 0 | 0.0 | 0.0 | 0.00 | 0.00 | 0.23 | 75 | 1012.0 |
| 20260502151844 | 11 | 48 | 1.6 | 4.8 | 0.00 | 0.00 | 0.23 | 80 | 1012.0 |
| 20260502151343 | 11 | 0 | 0.0 | 0.0 | 0.00 | 0.00 | 0.23 | 80 | 1012.0 |
| 20260502150843 | 11 | 245 | 3.2 | 3.2 | 0.00 | 0.00 | 0.23 | 82 | 1012.0 |
| 20260502150346 | 11 | 228 | 1.6 | 3.2 | 0.00 | 0.00 | 0.20 | 80 | 1012.0 |
| 20260502130344 | 8 | 11 | 0.0 | 1.6 | 0.00 | 0.00 | 0.13 | 94 | 1012.0 |
| 20260502123343 | 8 | 295 | 3.2 | 4.8 | 0.03 | 0.00 | 0.10 | 91 | 1013.0 |
| 20260502122843 | 8 | 307 | 3.2 | 3.2 | 0.03 | 0.00 | 0.10 | 90 | 1013.0 |
| 20260502122344 | 8 | 278 | 1.6 | 1.6 | 0.20 | 0.00 | 0.08 | 89 | 1013.0 |
| 20260502121843 | 8 | 296 | 3.2 | 3.2 | 0.20 | 0.00 | 0.08 | 88 | 1013.0 |
| 20260502121344 | 8 | 0 | 0.0 | 0.0 | 0.00 | 0.00 | 0.05 | 87 | 1013.0 |
| 20260502120843 | 8 | 321 | 0.0 | 1.6 | 0.00 | 0.00 | 0.05 | 87 | 1013.0 |
| 20260502120343 | 8 | 58 | 0.0 | 1.6 | 0.00 | 0.00 | 0.05 | 86 | 1013.0 |
| 20260502115843 | 8 | 240 | 6.4 | 8.0 | 0.08 | 0.00 | 0.05 | 85 | 1013.0 |
| 20260502115343 | 8 | 245 | 1.6 | 1.6 | 0.00 | 0.00 | 0.05 | 86 | 1013.0 |
| 20260502114843 | 8 | 243 | 4.8 | 6.4 | 0.00 | 0.00 | 0.05 | 85 | 1013.0 |
| 20260502114343 | 8 | 206 | 1.6 | 3.2 | 0.00 | 0.00 | 0.05 | 85 | 1013.0 |
| 20260502113844 | 8 | 256 | 4.8 | 6.4 | 0.00 | 0.00 | 0.05 | 86 | 1012.0 |
| 20260502113343 | 8 | 194 | 0.0 | 1.6 | 0.00 | 0.00 | 0.05 | 86 | 1012.0 |
| 20260502112845 | 8 | 150 | 1.6 | 3.2 | 0.00 | 0.00 | 0.05 | 86 | 1012.0 |
| 20260502112343 | 8 | 134 | 0.0 | 1.6 | 0.00 | 0.00 | 0.08 | 86 | 1012.0 |
| 20260502111843 | 8 | 201 | 1.6 | 3.2 | 0.00 | 0.00 | 0.08 | 86 | 1012.0 |
| 20260502111344 | 7 | 22 | 3.2 | 3.2 | 0.00 | 0.00 | 0.08 | 89 | 1012.0 |
| 20260502110843 | 7 | 137 | 0.0 | 1.6 | 0.00 | 0.00 | 0.08 | 91 | 1012.0 |
| 20260502110343 | 7 | 294 | 3.2 | 3.2 | 0.00 | 0.00 | 0.08 | 90 | 1012.0 |
| 20260502105843 | 7 | 229 | 0.0 | 0.0 | 0.00 | 0.00 | 0.08 | 90 | 1012.0 |
| 20260502105343 | 7 | 80 | 0.0 | 0.0 | 0.00 | 0.00 | 0.08 | 90 | 1012.0 |
| 20260502104843 | 7 | 319 | 0.0 | 3.2 | 0.00 | 0.00 | 0.03 | 89 | 1012.0 |
| 20260502103913 | 7 | 313 | 0.0 | 0.0 | 0.00 | 0.00 | 0.03 | 88 | 1012.0 |
| 20260502103344 | 7 | 259 | 3.2 | 3.2 | 0.00 | 0.00 | 0.03 | 89 | 1012.0 |
| 20260502102843 | 7 | 236 | 0.0 | 1.6 | 0.00 | 0.00 | 0.03 | 89 | 1012.0 |
| 20260502102344 | 7 | 283 | 3.2 | 3.2 | 0.00 | 0.00 | 0.03 | 89 | 1012.0 |
| 20260502101843 | 7 | 278 | 3.2 | 3.2 | 0.00 | 0.00 | 0.03 | 89 | 1012.0 |
| 20260502101344 | 7 | 0 | 0.0 | 0.0 | 0.00 | 0.00 | 0.03 | 90 | 1012.0 |
| 20260502100843 | 7 | 0 | 0.0 | 0.0 | 0.00 | 0.00 | 0.03 | 90 | 1012.0 |
| 20260502100344 | 7 | 255 | 0.0 | 0.0 | 0.00 | 0.00 | 0.03 | 90 | 1012.0 |
| 20260502091343 | 7 | 351 | 0.0 | 1.6 | 0.00 | 0.00 | 0.03 | 89 | 1011.0 |
| 20260502090843 | 7 | 259 | 1.6 | 3.2 | 0.00 | 0.00 | 0.03 | 89 | 1011.0 |
| 20260502090343 | 7 | 0 | 0.0 | 0.0 | 0.00 | 0.00 | 0.03 | 88 | 1011.0 |
| 20260502071345 | 8 | 264 | 0.0 | 1.6 | 0.00 | 0.00 | 0.00 | 81 | 1011.0 |
| 20260502070843 | 8 | 0 | 0.0 | 0.0 | 0.00 | 0.00 | 0.00 | 81 | 1011.0 |
| 20260502070343 | 8 | 227 | 1.6 | 1.6 | 0.00 | 0.00 | 0.00 | 80 | 1011.0 |
| 20260502065843 | 8 | 295 | 1.6 | 1.6 | 0.00 | 0.00 | 0.00 | 80 | 1011.0 |
| 20260502065343 | 8 | 0 | 0.0 | 0.0 | 0.00 | 0.00 | 0.00 | 80 | 1011.0 |
| 20260502064843 | 8 | 287 | 0.0 | 0.0 | 0.00 | 0.00 | 0.00 | 79 | 1012.0 |
| 20260502064343 | 8 | 267 | 1.6 | 3.2 | 0.00 | 0.00 | 0.00 | 80 | 1012.0 |
| 20260502063843 | 8 | 255 | 1.6 | 3.2 | 0.00 | 0.00 | 0.00 | 79 | 1012.0 |
| 20260502063344 | 8 | 0 | 0.0 | 0.0 | 0.00 | 0.00 | 0.00 | 78 | 1011.0 |
| 20260502062843 | 8 | 0 | 0.0 | 0.0 | 0.00 | 0.00 | 0.00 | 78 | 1012.0 |
| 20260502062343 | 8 | 125 | 0.0 | 0.0 | 0.00 | 0.00 | 0.00 | 78 | 1012.0 |
| 20260502061843 | 8 | 0 | 0.0 | 0.0 | 0.00 | 0.00 | 0.00 | 78 | 1012.0 |
| 20260502061344 | 8 | 281 | 0.0 | 1.6 | 0.00 | 0.00 | 0.00 | 78 | 1012.0 |
| 20260502060844 | 8 | 277 | 3.2 | 3.2 | 0.00 | 0.00 | 0.00 | 77 | 1012.0 |
| 20260502060343 | 8 | 235 | 3.2 | 3.2 | 0.00 | 0.00 | 0.00 | 78 | 1012.0 |
| 20260502055843 | 8 | 157 | 0.0 | 1.6 | 0.00 | 0.00 | 0.00 | 78 | 1012.0 |
| 20260502055344 | 8 | 94 | 1.6 | 3.2 | 0.00 | 0.00 | 0.00 | 78 | 1012.0 |
| 20260502054844 | 8 | 247 | 0.0 | 1.6 | 0.00 | 0.00 | 0.00 | 78 | 1012.0 |
| 20260502054343 | 8 | 0 | 0.0 | 0.0 | 0.00 | 0.00 | 0.00 | 78 | 1012.0 |
| 20260502053843 | 8 | 303 | 1.6 | 1.6 | 0.00 | 0.00 | 0.00 | 77 | 1012.0 |
| 20260502053343 | 8 | 0 | 0.0 | 0.0 | 0.00 | 0.00 | 0.00 | 77 | 1012.0 |
| 20260502052843 | 8 | 0 | 0.0 | 0.0 | 0.00 | 0.00 | 0.00 | 77 | 1012.0 |
| 20260502052343 | 8 | 305 | 0.0 | 0.0 | 0.00 | 0.00 | 0.00 | 76 | 1012.0 |
| 20260502051844 | 8 | 257 | 1.6 | 3.2 | 0.00 | 0.00 | 0.00 | 76 | 1012.0 |
| 20260502051343 | 8 | 283 | 3.2 | 3.2 | 0.00 | 0.00 | 0.00 | 76 | 1012.0 |
| 20260502050843 | 8 | 0 | 0.0 | 0.0 | 0.00 | 0.00 | 0.00 | 76 | 1012.0 |
| 20260502050344 | 8 | 29 | 1.6 | 1.6 | 0.00 | 0.00 | 0.00 | 76 | 1012.0 |
| 20260502045843 | 8 | 237 | 1.6 | 3.2 | 0.00 | 0.00 | 0.00 | 77 | 1012.0 |
| 20260502045344 | 8 | 253 | 1.6 | 3.2 | 0.00 | 0.00 | 0.00 | 76 | 1012.0 |
| 20260502044844 | 8 | 111 | 0.0 | 0.0 | 0.00 | 0.00 | 0.00 | 76 | 1012.0 |
| 20260502044345 | 8 | 301 | 0.0 | 1.6 | 0.00 | 0.00 | 0.00 | 76 | 1012.0 |
| 20260502043843 | 8 | 0 | 0.0 | 0.0 | 0.00 | 0.00 | 0.00 | 76 | 1012.0 |
| 20260502043343 | 8 | 0 | 0.0 | 0.0 | 0.00 | 0.00 | 0.00 | 76 | 1012.0 |
| 20260502042843 | 8 | 0 | 0.0 | 0.0 | 0.00 | 0.00 | 0.00 | 75 | 1012.0 |
| 20260502042343 | 8 | 303 | 1.6 | 1.6 | 0.00 | 0.00 | 0.00 | 75 | 1012.0 |
| 20260502041843 | 8 | 321 | 1.6 | 1.6 | 0.00 | 0.00 | 0.00 | 76 | 1012.0 |
| 20260502041344 | 8 | 349 | 0.0 | 0.0 | 0.00 | 0.00 | 0.00 | 74 | 1012.0 |
| 20260502040845 | 8 | 326 | 0.0 | 1.6 | 0.00 | 0.00 | 0.00 | 74 | 1012.0 |
| 20260502040343 | 8 | 328 | 0.0 | 1.6 | 0.00 | 0.00 | 0.00 | 74 | 1012.0 |
| 20260502035843 | 8 | 305 | 1.6 | 1.6 | 0.00 | 0.00 | 0.00 | 74 | 1012.0 |
| 20260502035343 | 8 | 0 | 0.0 | 0.0 | 0.00 | 0.00 | 0.00 | 74 | 1012.0 |
| 20260502034843 | 9 | 306 | 0.0 | 1.6 | 0.00 | 0.00 | 0.00 | 73 | 1012.0 |
| 20260502034343 | 9 | 286 | 0.0 | 0.0 | 0.00 | 0.00 | 0.00 | 72 | 1012.0 |
| 20260502033844 | 9 | 255 | 3.2 | 3.2 | 0.00 | 0.00 | 0.00 | 71 | 1012.0 |
| 20260502033343 | 9 | 280 | 1.6 | 3.2 | 0.00 | 0.00 | 0.00 | 70 | 1012.0 |
| 20260502032844 | 9 | 0 | 0.0 | 0.0 | 0.00 | 0.00 | 0.00 | 70 | 1012.0 |
| 20260502032343 | 9 | 250 | 0.0 | 0.0 | 0.00 | 0.00 | 0.00 | 72 | 1012.0 |
| 20260502031843 | 9 | 225 | 0.0 | 1.6 | 0.00 | 0.00 | 0.00 | 69 | 1012.0 |
| 20260502031343 | 9 | 0 | 0.0 | 0.0 | 0.00 | 0.00 | 0.00 | 69 | 1012.0 |
| 20260502030843 | 9 | 0 | 0.0 | 0.0 | 0.00 | 0.00 | 0.00 | 69 | 1012.0 |
| 20260502030343 | 9 | 212 | 0.0 | 0.0 | 0.00 | 0.00 | 0.00 | 68 | 1012.0 |
| 20260502025843 | 9 | 252 | 0.0 | 1.6 | 0.00 | 0.00 | 0.00 | 68 | 1012.0 |
| 20260502025343 | 9 | 242 | 1.6 | 3.2 | 0.00 | 0.00 | 0.00 | 68 | 1012.0 |
| 20260502024843 | 9 | 231 | 1.6 | 1.6 | 0.00 | 0.00 | 0.00 | 67 | 1012.0 |
| 20260502024343 | 9 | 243 | 1.6 | 3.2 | 0.00 | 0.00 | 0.00 | 69 | 1012.0 |
| 20260502023844 | 9 | 250 | 1.6 | 3.2 | 0.00 | 0.00 | 0.00 | 69 | 1012.0 |
| 20260502023343 | 9 | 0 | 0.0 | 0.0 | 0.00 | 0.00 | 0.00 | 64 | 1012.0 |
| 20260502022843 | 9 | 261 | 0.0 | 1.6 | 0.00 | 0.00 | 0.00 | 64 | 1012.0 |
| 20260502022344 | 9 | 101 | 0.0 | 0.0 | 0.00 | 0.00 | 0.00 | 64 | 1012.0 |
| 20260502021844 | 9 | 292 | 0.0 | 1.6 | 0.00 | 0.00 | 0.00 | 64 | 1012.0 |
| 20260502021343 | 9 | 225 | 0.0 | 1.6 | 0.00 | 0.00 | 0.00 | 65 | 1012.0 |
| 20260502020843 | 8 | 213 | 0.0 | 1.6 | 0.00 | 0.00 | 0.00 | 67 | 1012.0 |
| 20260502020343 | 8 | 266 | 1.6 | 3.2 | 0.00 | 0.00 | 0.00 | 67 | 1012.0 |
| 20260502015844 | 8 | 242 | 0.0 | 1.6 | 0.00 | 0.00 | 0.00 | 67 | 1012.0 |
| 20260502015343 | 8 | 0 | 0.0 | 0.0 | 0.00 | 0.00 | 0.00 | 64 | 1012.0 |
| 20260502014844 | 8 | 0 | 0.0 | 0.0 | 0.00 | 0.00 | 0.00 | 68 | 1012.0 |
| 20260502014343 | 9 | 243 | 1.6 | 3.2 | 0.00 | 0.00 | 0.00 | 68 | 1012.0 |
| 20260502013843 | 9 | 277 | 0.0 | 0.0 | 0.00 | 0.00 | 0.00 | 63 | 1012.0 |
| 20260502013344 | 9 | 0 | 0.0 | 0.0 | 0.00 | 0.00 | 0.00 | 62 | 1012.0 |
| 20260502012843 | 9 | 0 | 0.0 | 0.0 | 0.00 | 0.00 | 0.00 | 62 | 1012.0 |
| 20260502012343 | 9 | 276 | 0.0 | 1.6 | 0.00 | 0.00 | 0.00 | 64 | 1012.0 |
| 20260502011843 | 9 | 0 | 0.0 | 0.0 | 0.00 | 0.00 | 0.00 | 63 | 1011.0 |
| 20260502011344 | 9 | 0 | 0.0 | 0.0 | 0.00 | 0.00 | 0.00 | 66 | 1011.0 |
| 20260502010843 | 9 | 229 | 0.0 | 1.6 | 0.00 | 0.00 | 0.00 | 68 | 1011.0 |
| 20260502010343 | 9 | 315 | 0.0 | 0.0 | 0.00 | 0.00 | 0.00 | 60 | 1011.0 |
| 20260502005844 | 9 | 351 | 0.0 | 0.0 | 0.00 | 0.00 | 0.00 | 61 | 1011.0 |
| 20260502005343 | 9 | 138 | 0.0 | 3.2 | 0.00 | 0.00 | 0.00 | 62 | 1011.0 |
| 20260502004844 | 10 | 294 | 0.0 | 1.6 | 0.00 | 0.00 | 0.00 | 60 | 1011.0 |
| 20260502004344 | 10 | 285 | 1.6 | 3.2 | 0.00 | 0.00 | 0.00 | 60 | 1011.0 |
| 20260502003843 | 10 | 224 | 0.0 | 0.0 | 0.00 | 0.00 | 0.00 | 65 | 1011.0 |
| 20260502003343 | 10 | 0 | 0.0 | 0.0 | 0.00 | 0.00 | 0.00 | 58 | 1011.0 |
| 20260502002843 | 11 | 291 | 0.0 | 1.6 | 0.00 | 0.00 | 0.00 | 55 | 1011.0 |
| 20260502002343 | 11 | 290 | 1.6 | 3.2 | 0.00 | 0.00 | 0.00 | 54 | 1011.0 |
| 20260502001843 | 11 | 273 | 3.2 | 3.2 | 0.00 | 0.00 | 0.00 | 53 | 1011.0 |
| 20260502001343 | 11 | 272 | 1.6 | 3.2 | 0.00 | 0.00 | 0.00 | 51 | 1010.0 |
| 20260502000843 | 11 | 268 | 1.6 | 1.6 | 0.00 | 0.00 | 0.00 | 49 | 1010.0 |
| 20260502000344 | 11 | 284 | 1.6 | 3.2 | 0.00 | 0.00 | 0.00 | 49 | 1010.0 |
| 20260501235843 | 12 | 283 | 0.0 | 1.6 | 0.00 | 0.00 | 0.00 | 48 | 1010.0 |
| 20260501235343 | 12 | 296 | 1.6 | 3.2 | 0.00 | 0.00 | 0.00 | 47 | 1010.0 |
| 20260501234843 | 12 | 265 | 1.6 | 3.2 | 0.00 | 0.00 | 0.00 | 47 | 1010.0 |
| 20260501234343 | 13 | 273 | 1.6 | 3.2 | 0.00 | 0.00 | 0.00 | 45 | 1010.0 |
| 20260501233843 | 13 | 267 | 1.6 | 3.2 | 0.00 | 0.00 | 0.00 | 45 | 1010.0 |
| 20260501233343 | 13 | 241 | 0.0 | 1.6 | 0.00 | 0.00 | 0.00 | 41 | 1010.0 |
| 20260501232843 | 14 | 239 | 0.0 | 1.6 | 0.00 | 0.00 | 0.00 | 40 | 1010.0 |
| 20260501232343 | 15 | 259 | 3.2 | 4.8 | 0.00 | 0.00 | 0.00 | 42 | 1010.0 |
| 20260501231843 | 15 | 274 | 1.6 | 3.2 | 0.00 | 0.00 | 0.00 | 35 | 1010.0 |
| 20260501231343 | 15 | 255 | 1.6 | 3.2 | 0.00 | 0.00 | 0.00 | 37 | 1010.0 |
| 20260501230843 | 15 | 281 | 3.2 | 3.2 | 0.00 | 0.00 | 0.00 | 34 | 1010.0 |
| 20260501230344 | 15 | 211 | 6.4 | 9.7 | 0.00 | 0.00 | 0.00 | 33 | 1010.0 |
| 20260501225844 | 15 | 206 | 4.8 | 6.4 | 0.00 | 0.00 | 0.00 | 33 | 1010.0 |
| 20260501225343 | 16 | 200 | 3.2 | 4.8 | 0.00 | 0.00 | 0.00 | 33 | 1010.0 |
| 20260501224844 | 16 | 254 | 6.4 | 9.7 | 0.00 | 0.00 | 0.00 | 33 | 1009.0 |
| 20260501224344 | 16 | 226 | 6.4 | 11.3 | 0.00 | 0.00 | 0.00 | 32 | 1009.0 |
| 20260501223843 | 16 | 205 | 6.4 | 12.9 | 0.00 | 0.00 | 0.00 | 31 | 1009.0 |
| 20260501223343 | 16 | 208 | 6.4 | 9.7 | 0.00 | 0.00 | 0.00 | 31 | 1009.0 |
| 20260501222843 | 16 | 234 | 3.2 | 4.8 | 0.00 | 0.00 | 0.00 | 32 | 1009.0 |
| 20260501222344 | 16 | 205 | 6.4 | 12.9 | 0.00 | 0.00 | 0.00 | 32 | 1009.0 |
| 20260501221843 | 16 | 240 | 8.0 | 9.7 | 0.00 | 0.00 | 0.00 | 31 | 1009.0 |
| 20260501221343 | 16 | 212 | 6.4 | 11.3 | 0.00 | 0.00 | 0.00 | 31 | 1009.0 |
| 20260501220843 | 16 | 239 | 8.0 | 16.1 | 0.00 | 0.00 | 0.00 | 32 | 1009.0 |
| 20260501220344 | 17 | 285 | 6.4 | 12.9 | 0.00 | 0.00 | 0.00 | 31 | 1009.0 |
| 20260501215843 | 17 | 224 | 6.4 | 9.7 | 0.00 | 0.00 | 0.00 | 31 | 1009.0 |
| 20260501215343 | 17 | 186 | 3.2 | 6.4 | 0.00 | 0.00 | 0.00 | 30 | 1009.0 |
| 20260501214843 | 16 | 290 | 4.8 | 9.7 | 0.00 | 0.00 | 0.00 | 32 | 1009.0 |
| 20260501214344 | 16 | 288 | 9.7 | 20.9 | 0.00 | 0.00 | 0.00 | 30 | 1009.0 |
| 20260501213844 | 17 | 328 | 8.0 | 11.3 | 0.00 | 0.00 | 0.00 | 31 | 1009.0 |
| 20260501213343 | 17 | 284 | 8.0 | 20.9 | 0.00 | 0.00 | 0.00 | 30 | 1009.0 |
| 20260501212844 | 17 | 266 | 3.2 | 8.0 | 0.00 | 0.00 | 0.00 | 32 | 1009.0 |
| 20260501212343 | 17 | 285 | 4.8 | 9.7 | 0.00 | 0.00 | 0.00 | 31 | 1009.0 |
| 20260501211843 | 16 | 288 | 3.2 | 11.3 | 0.00 | 0.00 | 0.00 | 31 | 1009.0 |
| 20260501211345 | 16 | 283 | 4.8 | 9.7 | 0.00 | 0.00 | 0.00 | 31 | 1009.0 |
| 20260501210844 | 16 | 236 | 9.7 | 12.9 | 0.00 | 0.00 | 0.00 | 31 | 1009.0 |
| 20260501210345 | 16 | 244 | 9.7 | 12.9 | 0.00 | 0.00 | 0.00 | 31 | 1009.0 |
| 20260501205843 | 16 | 224 | 6.4 | 12.9 | 0.00 | 0.00 | 0.00 | 32 | 1009.0 |
| 20260501205344 | 16 | 207 | 6.4 | 9.7 | 0.00 | 0.00 | 0.00 | 33 | 1009.0 |
| 20260501204843 | 16 | 200 | 12.9 | 19.3 | 0.00 | 0.00 | 0.00 | 31 | 1009.0 |
| 20260501204344 | 17 | 227 | 8.0 | 14.5 | 0.00 | 0.00 | 0.00 | 30 | 1009.0 |
| 20260501203843 | 16 | 241 | 4.8 | 6.4 | 0.00 | 0.00 | 0.00 | 33 | 1009.0 |
| 20260501203343 | 16 | 240 | 8.0 | 12.9 | 0.00 | 0.00 | 0.00 | 30 | 1009.0 |
| 20260501202843 | 16 | 215 | 6.4 | 8.0 | 0.00 | 0.00 | 0.00 | 31 | 1009.0 |
| 20260501202343 | 16 | 224 | 3.2 | 4.8 | 0.00 | 0.00 | 0.00 | 31 | 1009.0 |
| 20260501201844 | 16 | 218 | 11.3 | 16.1 | 0.00 | 0.00 | 0.00 | 32 | 1009.0 |
| 20260501201343 | 16 | 249 | 3.2 | 17.7 | 0.00 | 0.00 | 0.00 | 32 | 1009.0 |
| 20260501200844 | 16 | 195 | 12.9 | 17.7 | 0.00 | 0.00 | 0.00 | 32 | 1009.0 |
| 20260501200347 | 16 | 266 | 4.8 | 11.3 | 0.00 | 0.00 | 0.00 | 32 | 1009.0 |
| 20260501195845 | 16 | 257 | 6.4 | 9.7 | 0.00 | 0.00 | 0.00 | 32 | 1009.0 |
| 20260501195345 | 16 | 237 | 8.0 | 14.5 | 0.00 | 0.00 | 0.00 | 32 | 1009.0 |
| 20260501194843 | 16 | 224 | 11.3 | 19.3 | 0.00 | 0.00 | 0.00 | 30 | 1009.0 |
| 20260501194343 | 16 | 271 | 3.2 | 6.4 | 0.00 | 0.00 | 0.00 | 31 | 1009.0 |
| 20260501193844 | 16 | 226 | 6.4 | 12.9 | 0.00 | 0.00 | 0.00 | 32 | 1009.0 |
| 20260501193343 | 16 | 220 | 8.0 | 12.9 | 0.00 | 0.00 | 0.00 | 32 | 1009.0 |
| 20260501192843 | 16 | 228 | 8.0 | 11.3 | 0.00 | 0.00 | 0.00 | 33 | 1009.0 |
| 20260501192343 | 16 | 124 | 3.2 | 6.4 | 0.00 | 0.00 | 0.00 | 32 | 1009.0 |